Location: Aurora Center
(43.5271°N, 98.5894°W)
Time: 09:26:24
(UTC-05:00)

ACS3 Solar Sail - Visible Passes

Search period start: 13 July 2025 00:00
Search period end: 23 July 2025 00:00
Orbit: 912 x 1023 km, 97.5° (Epoch: 12 July)

Date Brightness Start Highest point End Pass type
(mag) Time Alt. Az. Time Alt. Az. Time Alt. Az.
14 Jul 4.3 05:08:50 10° NE 05:12:24 16° E 05:15:59 10° SE visible
15 Jul 4.0 05:30:22 10° NE 05:35:12 25° E 05:40:08 10° SE visible
18 Jul 4.5 04:56:18 10° ENE 04:59:02 13° E 05:01:47 10° ESE visible
19 Jul 4.2 05:17:22 10° NE 05:21:50 21° E 05:26:21 10° SE visible
22 Jul 4.7 04:44:17 10° ENE 04:45:26 10° E 04:46:35 10° E visible
